Showing default

KORSAT 7, 58463

Orbit data source: Space-Track

KORSAT 7, 58463 is a payload satellite owned by DAPA (KR) in SSO that was launched on Fri, 01 Dec 2023 UTC via an FALCON 9 launch vehicle from the Air Force Western Test Range (AFWTR). Payload-class satellites include a variety of spacecraft equipped with specific instruments for various scientific and technological missions. These include communications satellites like Starlink; space stations such as the ISS; scientific satellites like the Hubble; Earth observation satellites from companies like Planet Labs, Umbra, and HawkEye 360; GPS; miniature CubeSats for education and research; and military/defense satellites.

Loading next visibility...
Identifier
58463, 2023-185B
Orbit
SSO
Country
Flag of UnknownUnknown / SKOR
Related business
Manufacturer
KAI
Mission
Operational Defense Imaging
Bus & Motor
CAS500?, Unknown motor
Mass
~800 kg wet, ~750 kg dry
Launch date (UTC)
2023-12-01 (2 years ago)
Launch vehicle
FALCON 9
Launch site
Air Force Western Test Range (AFWTR)
Object type
Payload
Rocket body
Debris
Shape & HBR
Box + 4 Pan, 3.0 m
Radar Cross Section
11.517 m², Large (>1 m²)

Expand to show TLE details & history
Last TLE update: 1 day ago

TLE from 1 day ago
0 KORSAT 7
1 58463U 23185B   25260.65228039  .00002277  00000-0  18349-3 0  9991
2 58463  97.6369 324.8741 0023144 162.3529 197.8504 15.00709800 98404
Epoch: 2025-09-17T15:39Z
TLE epoch observation values (Epoch: 2025-09-17T15:39:17.025Z)
Latitude
-0.00005°
Longitude
93.22801°
Altitude
583.066 km
Speed
7.561 km/s
True Right ascension
21h 39m 29s
True Declination
0° 00' 00"
Sunlit
Object was in full shadow at epoch
Visualization orbit readout
Latitude
Unknown
Longitude
Unknown
Altitude
Unknown
Speed
Unknown
Apparent Right ascension
Unknown
Apparent Declination
Unknown
Sunlit
N/A
Visualization observer readout
Local Sidereal Time
15:24:56
Azimuth
Unknown
Elevation
Unknown
Doppler factor
Unknown
Orbital elements
Apogee altitude
577.769 km
Perigee altitude
545.646 km
Semi-major axis
6,939.845 km
Eccentricity
0.00231
Inclination
97.6369°
RAAN
324.8741°
Arg. of periapsis
162.3529°
True anomaly
197.76933°
Mean anomaly
197.8504°
Eccentric anomaly
197.80984°
Mean motion
3.75421 °/min
Orbital period
95.89 mins
BSTAR
0.00018349
Loading maneuver chart data...
Computing Atmospheric mass density...
Loading historical data...
Loading historical data...
Loading historical data...
Loading historical data...
Loading historical data...
Loading historical data...
Loading historical data...

Documentation

Showing up to 5 results
|